Time,TemperatureF,DewpointF,PressureIn,WindDirection,WindDirectionDegrees,WindSpeedMPH,WindSpeedGustMPH,Humidity,HourlyPrecipIn,Conditions,Clouds,dailyrainin,SoftwareType,DateUTC
2013-03-06 00:12:00,32.2,29.0,29.76,West,272,16.0,-999.0,89,-99.99,,,0.98,weatherlink.com 1.10,2013-03-06 05:12:00,
2013-03-06 00:27:00,31.9,29.0,29.76,West,259,9.0,-999.0,90,-99.99,,,0.98,weatherlink.com 1.10,2013-03-06 05:27:00,
2013-03-06 00:42:00,31.6,29.0,29.75,West,275,7.0,-999.0,89,-99.99,,,0.98,weatherlink.com 1.10,2013-03-06 05:42:00,
2013-03-06 00:57:00,31.3,29.0,29.75,West,267,14.0,-999.0,90,-99.99,,,0.98,weatherlink.com 1.10,2013-03-06 05:57:00,
2013-03-06 01:12:00,30.9,28.0,29.75,West,277,12.0,-999.0,90,-99.99,,,0.98,weatherlink.com 1.10,2013-03-06 06:12:00,
2013-03-06 01:27:00,30.7,28.0,29.75,West,271,9.0,-999.0,90,-99.99,,,0.00,weatherlink.com 1.10,2013-03-06 06:27:00,
2013-03-06 01:42:00,30.6,28.0,29.75,WNW,290,8.0,-999.0,91,-99.99,,,0.00,weatherlink.com 1.10,2013-03-06 06:42:00,
2013-03-06 01:57:00,30.5,28.0,29.75,West,281,13.0,-999.0,91,-99.99,,,0.00,weatherlink.com 1.10,2013-03-06 06:57:00,
2013-03-06 02:12:00,30.6,28.0,29.75,WNW,296,9.0,-999.0,90,-99.99,,,0.00,weatherlink.com 1.10,2013-03-06 07:12:00,
2013-03-06 02:27:00,30.7,28.0,29.75,West,269,12.0,-999.0,90,-99.99,,,0.00,weatherlink.com 1.10,2013-03-06 07:27:00,
2013-03-06 02:42:00,30.8,28.0,29.75,WSW,255,8.0,-999.0,90,-99.99,,,0.00,weatherlink.com 1.10,2013-03-06 07:42:00,
2013-03-06 02:57:00,30.8,28.0,29.75,West,273,9.0,-999.0,90,-99.99,,,0.00,weatherlink.com 1.10,2013-03-06 07:57:00,
2013-03-06 03:12:00,30.7,28.0,29.75,West,270,12.0,-999.0,90,-99.99,,,0.00,weatherlink.com 1.10,2013-03-06 08:12:00,
2013-03-06 03:27:00,30.7,28.0,29.75,West,275,6.0,-999.0,91,-99.99,,,0.00,weatherlink.com 1.10,2013-03-06 08:27:00,
2013-03-06 03:42:00,30.8,29.0,29.75,WNW,294,4.0,-999.0,91,-99.99,,,0.00,weatherlink.com 1.10,2013-03-06 08:42:00,
2013-03-06 03:57:00,30.9,29.0,29.75,West,271,5.0,-999.0,91,-99.99,,,0.00,weatherlink.com 1.10,2013-03-06 08:57:00,
2013-03-06 04:12:00,31.0,29.0,29.76,West,274,9.0,-999.0,91,-99.99,,,0.00,weatherlink.com 1.10,2013-03-06 09:12:00,
2013-03-06 04:27:00,31.1,29.0,29.76,West,275,10.0,-999.0,91,-99.99,,,0.00,weatherlink.com 1.10,2013-03-06 09:27:00,
2013-03-06 04:42:00,31.2,29.0,29.76,NW,306,16.0,-999.0,91,-99.99,,,0.00,weatherlink.com 1.10,2013-03-06 09:42:00,
2013-03-06 04:57:00,31.2,29.0,29.76,WNW,284,5.0,-999.0,91,-99.99,,,0.00,weatherlink.com 1.10,2013-03-06 09:57:00,
2013-03-06 05:12:00,31.4,29.0,29.77,WNW,289,11.0,-999.0,91,-99.99,,,0.00,weatherlink.com 1.10,2013-03-06 10:12:00,
2013-03-06 05:27:00,31.6,29.0,29.78,WNW,286,5.0,-999.0,90,-99.99,,,0.00,weatherlink.com 1.10,2013-03-06 10:27:00,
2013-03-06 05:42:00,31.7,29.0,29.79,NW,315,6.0,-999.0,89,-99.99,,,0.00,weatherlink.com 1.10,2013-03-06 10:42:00,
2013-03-06 05:57:00,31.9,29.0,29.80,West,269,14.0,-999.0,88,-99.99,,,0.00,weatherlink.com 1.10,2013-03-06 10:57:00,
2013-03-06 06:12:00,32.1,29.0,29.80,WNW,300,4.0,-999.0,87,-99.99,,,0.00,weatherlink.com 1.10,2013-03-06 11:12:00,
2013-03-06 06:27:00,32.1,29.0,29.82,West,262,11.0,-999.0,87,-99.99,,,0.00,weatherlink.com 1.10,2013-03-06 11:27:00,
2013-03-06 06:43:00,31.7,29.0,29.83,WNW,290,9.0,-999.0,89,-99.99,,,0.00,weatherlink.com 1.10,2013-03-06 11:43:00,
2013-03-06 06:58:00,31.6,29.0,29.84,West,281,12.0,-999.0,89,-99.99,,,0.00,weatherlink.com 1.10,2013-03-06 11:58:00,
2013-03-06 07:13:00,31.6,29.0,29.85,WNW,298,8.0,-999.0,90,-99.99,,,0.00,weatherlink.com 1.10,2013-03-06 12:13:00,
2013-03-06 07:28:00,31.7,29.0,29.86,NW,315,6.0,-999.0,90,-99.99,,,0.00,weatherlink.com 1.10,2013-03-06 12:28:00,
2013-03-06 07:43:00,31.9,29.0,29.87,NW,310,9.0,-999.0,89,-99.99,,,0.00,weatherlink.com 1.10,2013-03-06 12:43:00,
2013-03-06 07:58:00,32.0,29.0,29.89,WNW,298,11.0,-999.0,89,-99.99,,,0.00,weatherlink.com 1.10,2013-03-06 12:58:00,
2013-03-06 08:13:00,31.9,29.0,29.90,WNW,291,11.0,-999.0,89,-99.99,,,0.00,weatherlink.com 1.10,2013-03-06 13:13:00,
2013-03-06 08:28:00,32.0,29.0,29.91,WNW,288,7.0,-999.0,89,-99.99,,,0.00,weatherlink.com 1.10,2013-03-06 13:28:00,
2013-03-06 08:43:00,31.9,29.0,29.93,WNW,292,12.0,-999.0,89,-99.99,,,0.00,weatherlink.com 1.10,2013-03-06 13:43:00,
2013-03-06 08:58:00,31.9,29.0,29.95,WNW,300,14.0,-999.0,89,-99.99,,,0.00,weatherlink.com 1.10,2013-03-06 13:58:00,
2013-03-06 09:13:00,31.9,29.0,29.96,NW,311,10.0,-999.0,89,-99.99,,,0.00,weatherlink.com 1.10,2013-03-06 14:13:00,
2013-03-06 09:28:00,31.7,29.0,29.97,WNW,294,11.0,-999.0,89,-99.99,,,0.00,weatherlink.com 1.10,2013-03-06 14:28:00,
2013-03-06 09:43:00,31.7,29.0,29.98,WNW,302,13.0,-999.0,88,-99.99,,,0.00,weatherlink.com 1.10,2013-03-06 14:43:00,
2013-03-06 09:58:00,31.6,29.0,30.00,WNW,290,7.0,-999.0,88,-99.99,,,0.00,weatherlink.com 1.10,2013-03-06 14:58:00,
2013-03-06 10:13:00,31.3,29.0,30.01,NW,306,9.0,-999.0,89,-99.99,,,0.00,weatherlink.com 1.10,2013-03-06 15:13:00,
2013-03-06 10:28:00,31.2,29.0,30.01,NW,313,9.0,-999.0,90,-99.99,,,0.00,weatherlink.com 1.10,2013-03-06 15:28:00,
2013-03-06 10:43:00,31.3,29.0,30.02,NW,313,6.0,-999.0,89,-99.99,,,0.00,weatherlink.com 1.10,2013-03-06 15:43:00,
2013-03-06 10:58:00,31.4,28.0,30.03,WNW,303,9.0,-999.0,88,-99.99,,,0.00,weatherlink.com 1.10,2013-03-06 15:58:00,
2013-03-06 11:13:00,31.5,28.0,30.05,NW,314,7.0,-999.0,87,-99.99,,,0.00,weatherlink.com 1.10,2013-03-06 16:13:00,
2013-03-06 11:28:00,31.5,28.0,30.06,NW,313,8.0,-999.0,87,-99.99,,,0.00,weatherlink.com 1.10,2013-03-06 16:28:00,
2013-03-06 11:43:00,31.7,28.0,30.07,NW,308,9.0,-999.0,86,-99.99,,,0.00,weatherlink.com 1.10,2013-03-06 16:43:00,
2013-03-06 11:58:00,31.8,28.0,30.08,NNW,340,11.0,-999.0,87,-99.99,,,0.00,weatherlink.com 1.10,2013-03-06 16:58:00,
2013-03-06 12:13:00,31.9,28.0,30.09,NW,310,9.0,-999.0,86,-99.99,,,0.00,weatherlink.com 1.10,2013-03-06 17:13:00,
2013-03-06 12:28:00,32.0,28.0,30.09,WNW,298,15.0,-999.0,86,-99.99,,,0.00,weatherlink.com 1.10,2013-03-06 17:28:00,
2013-03-06 12:43:00,32.0,29.0,30.09,NNW,327,6.0,-999.0,87,-99.99,,,0.00,weatherlink.com 1.10,2013-03-06 17:43:00,
2013-03-06 12:58:00,32.1,28.0,30.10,NNW,327,9.0,-999.0,86,-99.99,,,0.00,weatherlink.com 1.10,2013-03-06 17:58:00,
2013-03-06 13:13:00,32.2,28.0,30.11,NNW,337,8.0,-999.0,85,-99.99,,,0.00,weatherlink.com 1.10,2013-03-06 18:13:00,
2013-03-06 13:28:00,32.3,29.0,30.10,NW,317,5.0,-999.0,86,-99.99,,,0.00,weatherlink.com 1.10,2013-03-06 18:28:00,
2013-03-06 13:44:00,32.3,28.0,30.10,NNW,336,7.0,-999.0,85,-99.99,,,0.00,weatherlink.com 1.10,2013-03-06 18:44:00,
2013-03-06 13:59:00,32.5,29.0,30.11,WNW,296,12.0,-999.0,85,-99.99,,,0.00,weatherlink.com 1.10,2013-03-06 18:59:00,
2013-03-06 14:14:00,32.6,29.0,30.11,NNW,327,6.0,-999.0,85,-99.99,,,0.00,weatherlink.com 1.10,2013-03-06 19:14:00,
2013-03-06 14:29:00,32.8,29.0,30.12,NW,307,7.0,-999.0,85,-99.99,,,0.00,weatherlink.com 1.10,2013-03-06 19:29:00,
2013-03-06 14:44:00,32.9,29.0,30.13,NW,306,10.0,-999.0,85,-99.99,,,0.00,weatherlink.com 1.10,2013-03-06 19:44:00,
2013-03-06 14:59:00,33.0,29.0,30.13,NW,319,7.0,-999.0,84,-99.99,,,0.00,weatherlink.com 1.10,2013-03-06 19:59:00,
2013-03-06 15:14:00,33.2,29.0,30.14,WNW,290,7.0,-999.0,84,-99.99,,,0.00,weatherlink.com 1.10,2013-03-06 20:14:00,
2013-03-06 15:29:00,33.2,29.0,30.15,NW,317,4.0,-999.0,85,-99.99,,,0.00,weatherlink.com 1.10,2013-03-06 20:29:00,
2013-03-06 15:44:00,33.3,29.0,30.15,WNW,300,8.0,-999.0,85,-99.99,,,0.00,weatherlink.com 1.10,2013-03-06 20:44:00,
2013-03-06 16:14:00,33.4,29.0,30.16,NNW,336,7.0,-999.0,84,-99.99,,,0.00,weatherlink.com 1.10,2013-03-06 21:14:00,
2013-03-06 16:29:00,33.5,29.0,30.17,NW,315,5.0,-999.0,84,-99.99,,,0.00,weatherlink.com 1.10,2013-03-06 21:29:00,
2013-03-06 16:44:00,33.6,29.0,30.18,WNW,297,8.0,-999.0,84,-99.99,,,0.00,weatherlink.com 1.10,2013-03-06 21:44:00,
2013-03-06 16:59:00,33.6,30.0,30.18,NW,313,5.0,-999.0,85,-99.99,,,0.00,weatherlink.com 1.10,2013-03-06 21:59:00,
2013-03-06 17:14:00,33.5,30.0,30.18,WNW,283,10.0,-999.0,85,-99.99,,,0.00,weatherlink.com 1.10,2013-03-06 22:14:00,
2013-03-06 17:29:00,33.3,29.0,30.19,WNW,294,6.0,-999.0,85,-99.99,,,0.00,weatherlink.com 1.10,2013-03-06 22:29:00,
2013-03-06 17:44:00,33.1,29.0,30.20,WNW,283,6.0,-999.0,85,-99.99,,,0.00,weatherlink.com 1.10,2013-03-06 22:44:00,
2013-03-06 17:59:00,33.0,29.0,30.20,WNW,290,4.0,-999.0,86,-99.99,,,0.00,weatherlink.com 1.10,2013-03-06 22:59:00,
2013-03-06 18:14:00,32.9,29.0,30.21,NW,325,8.0,-999.0,86,-99.99,,,0.00,weatherlink.com 1.10,2013-03-06 23:14:00,
2013-03-06 18:29:00,32.9,29.0,30.21,WNW,301,6.0,-999.0,86,-99.99,,,0.00,weatherlink.com 1.10,2013-03-06 23:29:00,
2013-03-06 18:44:00,32.9,30.0,30.22,WNW,303,4.0,-999.0,87,-99.99,,,0.00,weatherlink.com 1.10,2013-03-06 23:44:00,
2013-03-06 18:59:00,32.9,30.0,30.23,NW,307,5.0,-999.0,87,-99.99,,,0.00,weatherlink.com 1.10,2013-03-06 23:59:00,
2013-03-06 19:14:00,33.0,29.0,30.23,WNW,298,2.0,-999.0,86,-99.99,,,0.00,weatherlink.com 1.10,2013-03-07 00:14:00,
2013-03-06 19:29:00,33.0,29.0,30.24,NW,310,4.0,-999.0,86,-99.99,,,0.00,weatherlink.com 1.10,2013-03-07 00:29:00,
2013-03-06 19:44:00,33.0,29.0,30.24,NW,311,1.0,-999.0,86,-99.99,,,0.00,weatherlink.com 1.10,2013-03-07 00:44:00,
2013-03-06 19:59:00,33.0,29.0,30.24,NW,304,2.0,-999.0,86,-99.99,,,0.00,weatherlink.com 1.10,2013-03-07 00:59:00,
2013-03-06 20:14:00,33.0,30.0,30.24,NW,305,2.0,-999.0,87,-99.99,,,0.00,weatherlink.com 1.10,2013-03-07 01:14:00,
2013-03-06 20:29:00,32.9,30.0,30.24,NW,305,3.0,-999.0,87,-99.99,,,0.00,weatherlink.com 1.10,2013-03-07 01:29:00,
2013-03-06 20:44:00,32.8,30.0,30.24,NW,308,3.0,-999.0,88,-99.99,,,0.00,weatherlink.com 1.10,2013-03-07 01:44:00,
2013-03-06 20:59:00,32.8,30.0,30.25,NW,308,4.0,-999.0,89,-99.99,,,0.00,weatherlink.com 1.10,2013-03-07 01:59:00,
2013-03-06 21:14:00,32.7,30.0,30.25,NW,308,2.0,-999.0,89,-99.99,,,0.00,weatherlink.com 1.10,2013-03-07 02:14:00,
2013-03-06 21:29:00,32.6,30.0,30.26,NW,308,1.0,-999.0,90,-99.99,,,0.00,weatherlink.com 1.10,2013-03-07 02:29:00,
2013-03-06 21:44:00,32.6,30.0,30.25,NW,308,3.0,-999.0,91,-99.99,,,0.00,weatherlink.com 1.10,2013-03-07 02:44:00,
2013-03-06 21:59:00,32.6,30.0,30.25,NW,308,0.0,-999.0,91,-99.99,,,0.00,weatherlink.com 1.10,2013-03-07 02:59:00,
2013-03-06 22:14:00,32.6,30.0,30.25,NW,308,2.0,-999.0,91,-99.99,,,0.00,weatherlink.com 1.10,2013-03-07 03:14:00,
2013-03-06 22:29:00,32.6,30.0,30.26,NW,308,1.0,-999.0,91,-99.99,,,0.00,weatherlink.com 1.10,2013-03-07 03:29:00,
2013-03-06 22:44:00,32.7,30.0,30.26,NW,308,2.0,-999.0,91,-99.99,,,0.00,weatherlink.com 1.10,2013-03-07 03:44:00,
2013-03-06 22:59:00,32.8,31.0,30.26,NW,308,5.0,-999.0,91,-99.99,,,0.00,weatherlink.com 1.10,2013-03-07 03:59:00,
2013-03-06 23:14:00,32.8,31.0,30.26,WNW,298,3.0,-999.0,91,-99.99,,,0.00,weatherlink.com 1.10,2013-03-07 04:14:00,
2013-03-06 23:29:00,32.9,30.0,30.26,NW,308,4.0,-999.0,90,-99.99,,,0.00,weatherlink.com 1.10,2013-03-07 04:29:00,
2013-03-06 23:44:00,32.9,30.0,30.26,NW,309,3.0,-999.0,90,-99.99,,,0.00,weatherlink.com 1.10,2013-03-07 04:44:00,
2013-03-06 23:59:00,32.9,30.0,30.25,NW,309,1.0,-999.0,90,-99.99,,,0.00,weatherlink.com 1.10,2013-03-07 04:59:00,